Regional Weather Roundup
Issued by NWS Charleston, SC

Current Version | Previous Version | Graphics & Text | Print | Product List | Glossary On
Versions: 1 2 3 4 5 6 7 8 9 10 11 12 13 14 15 16 17 18 19 20 21 22 23 24 25 26 27 28 29 30 31 32 33 34 35 36 37 38 39 40 41 42 43 44 45 46 47 48 49 50
000 ASUS42 KCHS 231610 RWRCHS REGIONAL WEATHER ROUNDUP NATIONAL WEATHER SERVICE CHARLESTON SC 1200 PM EDT WED JUL 23 2014 NOTE: "FAIR" INDICATES FEW OR NO CLOUDS BELOW 12,000 FEET WITH NO SIGNIFICANT WEATHER AND/OR OBSTRUCTIONS TO VISIBILITY. NOT ALL STATIONS ARE QUALITY CONTROLLED BY THE NATIONAL WEATHER SERVICE. USE DATA WITH CAUTION...ESPECIALLY DEWPOINT OBSERVATIONS. SCZ027-030-031-034>040-042>050-231700- ...SOUTH CAROLINA... CITY SKY/WX TMP DP RH WIND PRES REMARKS N CHARLESTON MOSUNNY 90 71 53 CALM 30.08S HX 96 WATERFRONT PRK N/A 84 N/A N/A SE3 N/A FORT JOHNSON NOT AVBL MOUNT PLEASANT FAIR 88 73 62 CALM 30.07F HX 96 JOHNS ISLAND MOSUNNY 90 59 35 CALM 30.08S PINOPOLIS N/A 90 75 62 CALM 30.00F HX 100 MONCKS CORNER N/A 88 77 70 NW3 30.08S HX 100 SUMMERVILLE PTSUNNY 86 73 66 W5 30.09S HX 93 BEAUFORT MCAS PTSUNNY 87 71 58 VRB5 30.08F HX 93 BEAUFORT ARPT FAIR 86 73 66 CALM 30.07F HX 93 HILTON HEAD IS MOSUNNY 84 75 74 CALM 30.09F HX 92 GEORGETOWN NOT AVBL WALTERBORO MOSUNNY 86 70 58 CALM 30.08F HX 90 ORANGEBURG SUNNY 86 71 60 W6 30.08F HX 91 BARNWELL FAIR 88 73 62 N6 30.09S HX 96 AIKEN FAIR 84 73 70 W8 30.13S HX 91 MANNING PTSUNNY 86 77 74 MISG 30.07F HX 97 KINGSTREE NOT AVBL COLUMBIA PTSUNNY 88 72 58 CALM 30.07F HX 94 SUMTER SUNNY 85 75 71 SW5 30.06F HX 93 FLORENCE PTSUNNY 85 73 67 VRB3 30.06F HX 91 MYRTLE BEACH MOSUNNY 88 72 58 N8 30.06F HX 94 N MYRTLE BEACH MOSUNNY 87 72 60 CALM 30.05F HX 93 $$ GAZ063-065-086>088-099>101-113>116-118-119-134-136>141-150-231700- ...GEORGIA... CITY SKY/WX TMP DP RH WIND PRES REMARKS SAVANNAH ARPT MOSUNNY 87 71 58 VRB3 30.08F HX 93 HUNTER AAF PTSUNNY 88 74 64 VRB1 30.06F HX 96 FORT STEWART MOSUNNY 88 73 61 CALM 30.07F HX 95 STATESBORO NOT AVBL SYLVANIA MOSUNNY 85 76 74 W3 30.09F HX 95 CLAXTON FAIR 88 77 70 CALM 30.08F HX 100 THOMSON MOSUNNY 85 78 80 CALM 30.13F HX 97 AUGUSTA-BUSH PTSUNNY 88 71 57 NW7 30.07F HX 94 AUGUSTA-DANIEL MOSUNNY 87 72 60 N5 30.09F HX 93 SWAINSBORO FAIR 88 75 66 CALM 30.09F HX 97 VIDALIA N/A 86 73 66 SW5 30.08F HX 93 ALMA MOSUNNY 88 73 61 CALM 30.08F HX 95 WAYCROSS MOSUNNY 90 77 65 N3 30.08S HX 104 JESUP NOT AVBL BRUNSWICK MOSUNNY 90 70 51 CALM 30.08S HX 95 SAINT SIMONS SUNNY 87 73 62 MISG 30.07F HX 94 $$ SCZ027-028-034-036>038-045-046-048>050-GAZ119-141-231700- ...LAKE AND SUPPLEMENTAL COASTAL OBSERVATIONS... STATION/POSITION TIME TEMP WIND PRES WAVE SWELL AIR SEA DIR/SP/G HT/PER HT/PER/DIR (UTC) (F) (DEG/KT/KT) (MB) (FT/S) (FT/S/D) UPR LAKE MARION NOT AVBL WINYAH BAY 1500 84 280/ 3 1018.0S LAKE MURRAY 1500 80 260/ 3/ 6 1017.9F ACE BASIN NERRS 1500 84 290/ 1 1019.0S FORT PULASKI 1600 84 50/ 3/ 4 1018.8F SAPELO ISLAND 1500 87 CALM 1019.0S $$ ANZ835-935-AMZ111-154-330-350-352-354-374-450-454-472-231700- ...C-MAN AND BUOY OBSERVATIONS... STATION/POSITION TIME TEMP WIND PRES WAVE SWELL AIR SEA DIR/SP/G HT/PER HT/PER/DIR (UTC) (F) (DEG/KT/KT) (MB) (FT/S) (FT/S/D) FOLLY BEACH CMAN 1500 83 100/ 3/ 4 1019.1S BUOY 41004 1600 78 82 10/ 4/ 4 1018.4R 3/ 7 3/ 7 BUOY 41008 1600 83 85 350/ 2/ 4 1018.8F 2/ 7 2/120/ 7 5E ST. MARYS GA 1600 87 N/A 2/ 8 FRYING PAN BUOY NOT AVBL BUOY 41025 NOT AVBL CAPE LOOKOUT NC 1500 81 250/ 6/ 9 1017.9F BUOY 41002 1525 82 82 220/ 17/ 21 1020.6R 4/ 4 2/130/ 7 BUOY 41010 1600 83 83 180/ 14/ 16 1019.9S 4/ 7 2/ 90/ 7 BUOY 41012 NOT AVBL ST AUGUSTINE FL 1600 82 90/ 4/ 5 1019.6S CAPERS NEARSHORE 1500 87 CALM / 2 N/A FRIPP NEARSHORE NOT AVBL $$

USA.gov is the U.S. government's official web portal to all federal, state and local government web resources and services.